Location: ?astrovice
(49.6513°N, 14.9287°E)
Time: 00:07:26
(UTC+00:00)

Cosmos 2218 Rocket - Pass Details

Date: 09 April 2020
Orbit: 957 x 1005 km, 82.9° (Epoch: 04 June)

Event Time Altitude Azimuth Distance (km) Brightness Sun altitude
Rises 19:08:57 0° 352° (N) 3,666 7.6 -13.4°
Reaches altitude 10° 19:11:31 10° 357° (N) 2,721 6.8 -13.8°
Maximum altitude 19:17:39 57° 76° (ENE) 1,137 4.1 -14.6°
Enters shadow 19:22:21 18° 150° (SSE) 2,213 5.3 -15.3°
